Kezdőlap
METAR-TAF:

METAR-TAF

Repülőterek :

Galesburg Municipal Airport

Galesburg, Illinois, Amerikai Egyesült Államok

földrajzi szélesség: 40-56-17N, földrajzi hosszúság: 090-25-52W, magasság: 233 m

Jelenlegi meteorológiai megfigyelések

A jelentés 32 perccel ezelõtt készült, 16:55 UTC
Szélcsend
Hőmérséklet 25°C
Páratartalom 69%
Légköri nyomás 1009 hPa
Látótávolság: 16.1 km
Derült ég

METAR: KGBG 181655Z AUTO 00000KT 10SM CLR 25/19 A2980 RMK AO2 T02490187

Idő: 12:27 (17:27 UTC)


TAF: hiányzik

Meteorológiai megfigyelések és előrejelzések több, mint 4000 repülőtéren (METAR és TAF jelentéseket).

A térképen piros és sárga pontok jelzik az elérhető meteorológiai állomásokat.

Mozgassa az egeret a pont fölött, hogy megjelenjen az állomás neve.

Azután kattintson az időjárási megfigyelések és előrejelzések megtekintéséhez.

A térkép megváltoztatása: kattintson a fekete keresztel jelölt zöld gombra ráközelítéshez, a vonallal jelölt zöld gombra távolításhoz, vagy a zöld nyilakra a szomszédos térképek eléréséhez.


METAR-TAF: